#timestamp,LO_Frequency,Hit 
1506387615.6,286046989.2,N
1506387635.4,286046990.2,N
1506387655.2,286046988.6,N
1506387675.1,286046990.4,N
1506387676.0,286046990.4,N
1506387695.8,286046994.4,N
1506387715.6,286046996.4,N
1506387735.5,286046998.8,N
1506387755.3,286047000.3,N
1506387775.1,286047000.3,N
1506387795.9,286046998.5,N
1506387815.7,286046999.6,N
1506387835.5,286046999.2,N
1506387855.4,286047002.2,N
1506387875.2,286046998.9,N
1506387895.0,286046999.2,N
1506387895.9,286046999.2,N
1506387915.8,286046996.9,N
1506387935.6,286046996.5,N
1506387955.4,286046995.0,N
1506387975.3,286047004.3,N
1506387995.1,286047005.9,N
1506387996.0,286047005.9,N
1506388015.8,286047002.1,N
1506388035.6,286047001.6,N
1506388055.5,286047004.1,N
1506388075.3,286047004.2,N
1506388095.1,286047003.2,N
1506388115.9,286047005.0,N
1506388135.7,286047004.4,N
1506388155.5,286046998.6,N
1506388175.4,286046996.5,N
1506388195.2,286047000.8,N
1506388215.0,286047000.0,N
1506388215.9,286047000.0,N
1506388235.8,286047000.9,N
1506388255.6,286047002.3,N
1506388275.4,286047002.1,N
1506388295.3,286047004.1,N
1506388315.1,286047004.5,N
1506388316.0,286047004.5,N
1506388335.8,286047003.0,N
1506388355.7,286047004.9,N
1506388375.5,286047005.0,N
1506388395.3,286047007.1,N
1506388415.1,286047004.1,N
1506388435.9,286047000.6,N
1506388455.7,286046998.5,N
1506388475.5,286047002.2,N
1506388495.4,286047000.5,N
1506388515.2,286046998.6,N
1506388535.0,286046999.3,N
1506388535.9,286046999.3,N
1506388555.8,286046998.1,N
1506388575.6,286046996.9,N
1506388595.4,286046998.9,N
1506388615.3,286046999.4,N
1506388635.1,286046996.8,N
1506388636.0,286046996.8,N
1506388655.8,286047000.5,N
1506388675.1,286047002.5,N
1506388695.9,286047002.6,N
1506388715.3,286047001.4,N
1506388735.1,286047003.1,N
1506388736.0,286047003.1,N
1506388755.8,286047003.6,N
1506388775.7,286047001.5,N
1506388795.1,286047001.0,N
1506388815.8,286047000.0,N
1506388835.7,286046999.9,N
1506388855.5,286046996.5,N
1506388875.3,286046999.5,N
1506388895.2,286046997.5,N
1506388915.9,286046998.5,N
1506388935.7,286046995.0,N
1506388955.7,286046998.6,N
1506388975.5,286046996.5,N
1506388995.3,286046998.4,N
1506389015.2,286046994.9,N
1506389035.9,286046995.2,N
1506389055.7,286046997.4,N
1506389075.7,286047000.6,N
1506389095.5,286046998.1,N
1506389115.3,286046996.6,N
1506389135.2,286046996.8,N
1506389155.9,286046995.9,N
1506389175.7,286046993.6,N
1506389195.6,286046993.8,N
1506389215.4,286046992.4,N
1506389235.2,286046997.5,N
1506389255.0,286046991.7,N
1506389256.0,286046991.7,N
1506389275.8,286046988.7,P
1506389295.5,286046991.4,N
1506389315.3,286046994.7,N
1506389335.2,286046992.4,N
1506389355.9,286046992.9,N
1506389375.7,286046992.6,N
1506389395.5,286046992.7,N
1506389415.4,286046990.7,P
1506389435.2,286046998.0,N
1506389455.1,286046995.5,N
1506389456.0,286046995.5,N
1506389475.8,286046994.8,N
1506389495.6,286046994.5,N
1506389515.5,286046996.0,N
1506389535.3,286046995.3,N
1506389555.1,286046995.1,N
1506389575.8,286046996.1,N
1506389595.7,286046997.9,N
1506389615.5,286046999.1,N
1506389635.3,286046997.9,N
1506389655.2,286046994.2,N
1506389675.9,286046997.2,N
1506389695.7,286046997.2,N
1506389715.6,286046994.4,N
1506389735.4,286046995.5,N
1506389755.2,286046995.5,N
1506389775.1,286046996.8,N
1506389776.0,286046996.8,N
1506389795.8,286046997.9,N
1506389815.6,286046995.2,N
1506389835.5,286046998.9,N
1506389855.3,286046999.0,N
1506389875.1,286047000.2,N
1506389895.8,286047003.3,N
1506389915.7,286047006.5,N
1506389935.5,286047008.9,N
1506389955.3,286047006.5,N
1506389975.2,286047003.4,N
1506389995.9,286047000.0,N
1506390015.7,286046998.8,N
1506390035.6,286046995.6,N
1506390055.4,286046997.5,N
1506390075.2,286046996.3,N
1506390095.1,286046992.5,N
1506390096.0,286046992.5,N
1506390115.8,286046990.6,N
1506390135.6,286046992.0,N
1506390155.4,286046992.1,N
1506390175.3,286046992.4,N
1506390195.1,286046990.5,N
1506390215.8,286046990.3,N
1506390235.7,286046990.8,N
1506390255.5,286046988.7,N
1506390275.3,286046988.1,N
1506390295.2,286046985.4,N
1506390315.9,286046988.4,N
1506390335.7,286046988.0,N
1506390355.6,286046988.2,N
1506390375.4,286046988.1,N
1506390395.2,286046986.8,N
1506390415.1,286046984.7,N
1506390416.0,286046984.7,N
1506390435.8,286046986.2,N
1506390455.6,286046985.9,N
1506390475.5,286046987.7,N
1506390495.3,286046987.3,N
1506390515.1,286046985.7,N
1506390535.9,286046984.0,P
1506390555.7,286046994.6,N
1506390575.5,286046992.0,N
1506390595.3,286046991.7,N
1506390615.2,286046993.8,N
1506390635.0,286046993.3,N
1506390635.9,286046993.3,N
1506390655.7,286046993.3,N
1506390675.6,286046996.3,N
1506390695.4,286046995.3,N
1506390715.2,286046993.9,N
1506390735.1,286046991.8,N
1506390736.0,286046991.8,N
1506390755.8,286046991.8,N
1506390775.7,286046991.7,P
1506390795.5,286047002.6,P
1506390815.3,286047001.5,N
1506390835.1,286047004.0,N
1506390855.9,286047002.6,N
1506390875.7,286047001.2,N
1506390895.5,286047002.6,N
1506390915.4,286047000.3,N
1506390935.2,286047002.4,N
1506390955.0,286047002.8,N
1506390955.9,286047002.8,N
1506390975.8,286047004.1,N
1506390995.6,286047001.5,N
1506391015.4,286047005.6,N
1506391035.3,286047006.0,N
1506391055.1,286047003.3,N
1506391056.0,286047003.3,N
1506391075.8,286047005.1,N
1506391095.7,286047006.0,N
1506391115.5,286047003.0,N
1506391135.3,286047002.4,N
1506391155.1,286047000.1,N
1506391175.9,286046999.9,N
1506391195.7,286047002.6,N
